TimeEST,TemperatureF,Dew PointF,Humidity,Sea Level PressureIn,VisibilityMPH,Wind Direction,Wind SpeedMPH,Gust SpeedMPH,PrecipitationIn,Events,Conditions,WindDirDegrees,DateUTC
12:53 AM,59.0,54.0,83,30.21,10.0,West,4.6,-,N/A,,Overcast,270,2012-11-10 05:53:00
1:53 AM,55.9,53.1,90,30.21,10.0,West,3.5,-,N/A,,Mostly Cloudy,280,2012-11-10 06:53:00
2:53 AM,57.0,54.0,89,30.21,10.0,Calm,Calm,-,N/A,,Mostly Cloudy,0,2012-11-10 07:53:00
3:53 AM,55.9,53.1,90,30.22,10.0,WNW,4.6,-,N/A,,Mostly Cloudy,300,2012-11-10 08:53:00
4:53 AM,57.9,55.0,90,30.22,10.0,West,3.5,-,N/A,,Overcast,280,2012-11-10 09:53:00
5:53 AM,57.9,55.9,93,30.24,10.0,Calm,Calm,-,N/A,,Overcast,0,2012-11-10 10:53:00
7:53 AM,62.1,57.9,86,30.27,10.0,Calm,Calm,-,N/A,,Overcast,0,2012-11-10 12:53:00
8:53 AM,64.9,57.9,78,30.29,10.0,West,3.5,-,N/A,,Overcast,280,2012-11-10 13:53:00
9:53 AM,73.0,54.0,51,30.30,10.0,ENE,12.7,-,N/A,,Mostly Cloudy,60,2012-11-10 14:53:00
10:53 AM,73.0,53.1,49,30.30,10.0,ENE,9.2,-,N/A,,Overcast,70,2012-11-10 15:53:00
11:53 AM,75.0,52.0,44,30.28,10.0,ENE,12.7,-,N/A,,Mostly Cloudy,60,2012-11-10 16:53:00
12:53 PM,75.9,52.0,43,30.25,10.0,NE,9.2,-,N/A,,Mostly Cloudy,40,2012-11-10 17:53:00
1:53 PM,73.0,54.0,51,30.24,10.0,NE,8.1,-,N/A,,Overcast,50,2012-11-10 18:53:00
2:53 PM,73.9,54.0,50,30.23,10.0,ENE,9.2,-,N/A,,Mostly Cloudy,70,2012-11-10 19:53:00
3:53 PM,73.9,54.0,50,30.23,10.0,ENE,12.7,-,N/A,,Mostly Cloudy,60,2012-11-10 20:53:00
4:53 PM,72.0,52.0,49,30.24,10.0,ENE,9.2,-,N/A,,Partly Cloudy,70,2012-11-10 21:53:00
5:53 PM,71.1,55.0,57,30.25,10.0,ENE,9.2,-,N/A,,Mostly Cloudy,70,2012-11-10 22:53:00
6:53 PM,71.1,54.0,55,30.26,10.0,East,11.5,-,N/A,,Mostly Cloudy,80,2012-11-10 23:53:00
7:53 PM,71.1,52.0,51,30.27,10.0,East,11.5,-,N/A,,Scattered Clouds,80,2012-11-11 00:53:00
8:53 PM,71.1,52.0,51,30.27,10.0,East,9.2,19.6,N/A,,Mostly Cloudy,80,2012-11-11 01:53:00
9:53 PM,72.0,53.1,51,30.27,10.0,East,10.4,-,N/A,,Overcast,90,2012-11-11 02:53:00
11:53 PM,72.0,55.0,55,30.26,10.0,ENE,8.1,-,N/A,,Overcast,70,2012-11-11 04:53:00